This is the latest recevied weather packets stored in our database for station/object N9VPV. If no packets are shown the sender has not sent any weather packets the latest 10 day(s).
| Time | Temp. | Humidity | Pressure | Rain* | Wind** | Luminosity | Snow |
|---|---|---|---|---|---|---|---|
| 1788146314 | 79° F | 76% | 760.4 mmHg | 0 in | - | 0 W/m² | - |
| 1788145398 | 79° F | 76% | 760.5 mmHg | 0 in | - | 0 W/m² | - |
| 1788144495 | 79° F | 77% | 760.5 mmHg | 0 in | - | 0 W/m² | - |
| 1788143590 | 79° F | 77% | 760.6 mmHg | 0 in | - | 0 W/m² | - |
| 1788142691 | 80° F | 79% | 760.2 mmHg | 0 in | - | 0 W/m² | - |
| 1788141769 | 80° F | 79% | 760.2 mmHg | 0 in | - | 0 W/m² | - |
| 1788140866 | 80° F | 80% | 760.2 mmHg | 0 in | - | 0 W/m² | - |
| 1788139963 | 80° F | 80% | 760 mmHg | 0 in | - | 0 W/m² | - |
| 1788139062 | 81° F | 81% | 760.1 mmHg | 0 in | - | 0 W/m² | - |
| 1788138112 | 81° F | 82% | 759.9 mmHg | 0 in | - | 0 W/m² | - |
| 1788137211 | 82° F | 82% | 760 mmHg | 0 in | - | 5 W/m² | - |
| 1788136307 | 82° F | 81% | 760 mmHg | 0 in | - | 14 W/m² | - |
| 1788135406 | 83° F | 79% | 760.1 mmHg | 0 in | - | 25 W/m² | - |
| 1788134501 | 84° F | 77% | 760.1 mmHg | 0 in | - | 30 W/m² | - |
| 1788133599 | 84° F | 76% | 760.1 mmHg | 0 in | - | 28 W/m² | - |
| 1788132698 | 84° F | 76% | 760.1 mmHg | 0 in | - | 37 W/m² | - |
| 1788131793 | 84° F | 76% | 760 mmHg | 0 in | - | 37 W/m² | - |
| 1788130889 | 85° F | 75% | 760 mmHg | 0 in | - | 44 W/m² | - |
| 1788129989 | 84° F | 73% | 760 mmHg | 0 in | - | 51 W/m² | - |
| 1788129090 | 84° F | 73% | 760 mmHg | 0 in | - | 53 W/m² | - |
| 1788128187 | 85° F | 72% | 760.1 mmHg | 0 in | - | 62 W/m² | - |
| 1788127283 | 85° F | 72% | 760 mmHg | 0 in | - | 60 W/m² | - |
| 1788126384 | 85° F | 71% | 760.3 mmHg | 0 in | - | 79 W/m² | - |
| 1788125485 | 85° F | 72% | 760.4 mmHg | 0 in | - | 132 W/m² | - |
| 1788124582 | 85° F | 72% | 760.4 mmHg | 0 in | - | 123 W/m² | - |
* Rain latest hour (hover to see other rain measurements)
** Current wind speed in m/s (hover to see current wind gust speed)